www.pogodaiklimat.ru

Погода и климат >> Архив погоды >> Мьянма >> Йе


ПОГОДА в Йе

  • Прогноз погоды в Йе
  • Монитор погоды в Йе

АРХИВ ПОГОДЫ в Йе

Время (UTC), дата Ветер
(напр.,м/с)
 
Видим.   Явления Облачность Т
(С)
Тd
(С)
f
(%)
Тe
(С)
Тes
(С)
Комфортность P
(гПа)
Po
(гПа)
Тmin
(С)
Tmax
(С)
R
(мм)
R24
(мм)
S
(см)
03 19.04 СВ 1 5000 м {туман} 4/4 200 м
[Cu Sc]
+31.2 +25.4 71 +45 +55 опасность
перегрева
1010.4 1009.6
06 19.04 5000 м н/о +37.0 +24.6 49 +49 +65 опасность
перегрева
1009.3 1008.5
09 19.04 н/о
00 20.04 штиль 0 3000 м 3/3 200 м
[Cu Sc]
+24.8 +23.3 91 +33 +34 очень
душно
1009.4 1008.6 +24.0
03 20.04 ЮВ 1 5000 м ясно +31.2 +25.4 71 +45 +62 опасность
перегрева
1009.4 1008.6
06 20.04 ЮЗ 2 5000 м 6/4 200 м
[Cb calv Ac und]
+37.0 +25.3 51 +51 +61 опасность
перегрева
1007.4 1006.6
09 20.04 З 2 5000 м 8/5 200 м
[Cb calv Ac und]
+38.0 +24.0 45 +49 +52 опасность
перегрева
1005.2 1004.4
12 20.04 штиль 0 3000 м 6/4 200 м
[Cb calv Ac und]
+31.4 +26.7 76 +48 +48 опасность
перегрева
1005.0 1004.2 +39.8
00 21.04 штиль 0 3000 м туман местами 4/4 200 м
[Cb calv]
+24.0 +24.0 100 +33 +33 очень
душно
1008.3 1007.5 +23.2
03 21.04 н/о
06 21.04 З 2 5000 м 3/3 200 м
[Cb calv]
+37.0 +24.6 49 +49 +65 опасность
перегрева
1007.3 1006.5
09 21.04 СЗ 1 6000 м 3/3 300 м
[Cb calv]
+37.4 +24.6 48 +50 +57 опасность
перегрева
1004.7 1003.9
12 21.04 штиль 0 3000 м 3/3 200 м
[Cb calv]
+31.0 +26.7 78 +48 +48 опасность
перегрева
1004.6 1003.8 +39.2
00 22.04 штиль 0 3000 м туман местами 4/4 200 м
[Cb calv]
+24.2 +22.6 91 +32 +32 очень
душно
1007.0 1006.2 +23.4
03 22.04 СЗ 1 4000 м {туман} 3/3 200 м
[Cb calv]
+31.0 +25.4 72 +45 +57 опасность
перегрева
1008.5 1007.7
06 22.04 ЮЗ 1 5000 м 3/3 200 м
[Cb calv]
+37.2 +25.8 52 +52 +70 опасность
перегрева
1007.2 1006.4
09 22.04 З 2 5000 м ясно +37.2 +24.6 49 +50 +59 опасность
перегрева
1004.4 1003.6
12 22.04 штиль 0 3000 м 5/5 200 м
[Cb calv]
+31.2 +25.4 71 +45 +45 опасность
перегрева
1004.4 1003.6 +39.0
00 23.04 штиль 0 3000 м 3/3 200 м
[Cb calv]
+27.0 +24.0 84 +37 +38 очень
душно
1008.5 1007.7 +26.2
03 23.04 ЮВ 1 5000 м ясно +32.2 +23.6 61 +44 +61 опасность
перегрева
1009.5 1008.7
06 23.04 СЗ 1 6000 м 3/3 300 м
[Cu Sc]
+39.2 +25.3 46 +53 +71 опасность
перегрева
1009.0 1008.2
09 23.04 ЮВ 1 5000 м 5/5 300 м
[Cb calv]
+38.2 +24.0 44 +49 +54 опасность
перегрева
1005.6 1004.8
12 23.04 штиль 0 3000 м 5/4 200 м
[Cb calv]
+33.0 +25.8 66 +48 +48 опасность
перегрева
1007.7 1006.9 +40.0
00 24.04 В 1 3000 м туман местами ясно +25.4 +23.3 88 +34 +35 очень
душно
1010.1 1009.3 +24.6
03 24.04 ЮЗ 1 5000 м {туман} ясно +31.0 +23.7 65 +42 +59 опасность
перегрева
1011.0 1010.2
06 24.04 6000 м н/о +38.0 +24.0 45 +49 +61 опасность
перегрева
1008.8 1008.0
09 24.04 СЗ 1 5000 м 3/3 200 м
[Cb calv]
+39.2 +25.3 46 +53 +60 опасность
перегрева
1006.3 1005.5
12 24.04 штиль 0 3000 м 6/4 200 м
[Cb calv Ac und]
+33.8 +25.7 63 +49 +49 опасность
перегрева
1007.1 1006.3 +40.0
00 25.04 СВ 1 3000 м туман местами 3/3 200 м
[Cb calv]
+25.4 +23.3 88 +34 +35 очень
душно
1009.1 1008.3 +24.6
03 25.04 ЮВ 1 5000 м {туман} 3/3 200 м
[Cb calv]
+32.0 +23.6 61 +43 +55 опасность
перегрева
1010.2 1009.4
06 25.04 З 2 6000 м ясно +38.4 +24.0 44 +50 +71 опасность
перегрева
1009.0 1008.2
09 25.04 СЗ 2 5000 м 3/3 200 м
[Cb calv]
+38.8 +25.3 47 +53 +59 опасность
перегрева
1006.5 1005.7
00 26.04 штиль 0 3000 м туман местами 3/3 200 м
[Cu Sc]
+24.8 +21.9 84 +32 +33 очень
душно
1008.5 1007.7 +24.0

 

Местоположение метеостанции Йе (Мьянма): широта 15.25 долгота 97.87 высота над уровнем моря 7 м.

В архиве по умолчанию представлена погода в Йе за последнюю неделю. Архивные данные за месяц целиком и за предыдущие месяцы, начиная с января 2011 года, Вы можете получить, выбрав интересующий диапазон дат из раскрывающегося списка и нажав кнопку "Ввод!".


*Определитесь, кто Вы:
робот инопланетянин человек

Внимание! Время в таблицах - всемирное. Для получения местного времени необходимо прибавить поправку, которая равна 6.5 ч.

Смотрите также архив погоды в соседних городах и на ближайших метеорологических станциях:

Погода в Тхонг Пха Пхум (Таиланд) (99 км)
Погода в Тавое (Мьянма) (133 км)
Погода в Умпханге (Таиланд) (137 км)
Погода в Моламьяйне (Мьянма) (142 км)
Погода в Пхаане (Мьянма) (168 км)
Погода в Мэй Сот (Таиланд) (174 км)
Погода в Дои Му Со Агромете (Таиланд) (202 км)
Погода в Кампхэнгпхете (Таиланд) (224 км)
Погода в Канчанабури (Таиланд) (225 км)
Погода в Таке (Таиланд) (227 км)

Пояснения к столбцам:

Ветер - указаны скорость ветра в м/с - средняя за 10 мин, порывы в срок и между сроками (в фигурных скобках) и направление, откуда дует ветер: С - северный, СВ - северо-восточный, В - восточный, ЮВ - юго-восточный, Ю - южный, ЮЗ - юго-западный, З - западный, СЗ - северо-западный.
Видимость - горизонтальная дальность видимости в метрах или километрах. При видимости от 1 до 10 км при отсутствии осадков обычно наблюдается дымка, при ухудшении видимости до 1 км и менее - туман. В сухую погоду видимость может ухудшаться дымом, пылью или мглою.
Явления - указаны атмосферные явления, наблюдавшиеся в срок или в последний час перед сроком; фигурными скобками обозначены явления, наблюдавшиеся между сроками (за 1-3 часа до срока); квадратными скобками обозначены град или гололедные отложения с указанием их диаметра в мм.
Облачность - указаны через наклонную черту общая и нижняя облачность в баллах и высота нижней границы облаков в метрах; квадратными скобками обозначены формы облаков: Ci - перистые, Cs - перисто-слоистые, Cc - перисто-кучевые, Ac - высококучевые, As - высокослоистые, Sc - слоисто-кучевые, Ns - слоисто-дождевые, Cu - кучевые, Cb - кучево-дождевые. Подробнее классификацию облаков см. в Атласе облаков (PDF).
T - Температура воздуха - температура, измеренная на высоте 2 м над землей.
Td - Температура точки росы - температура, при понижении до которой содержащийся в воздухе водяной пар достигнет насыщения.
f - Относительная влажность воздуха - влажноcть воздуха, измеренная на высоте 2 м над землей.
Te - Эффективная температура - температура, которую ощущает одетый по сезону человек в тени. Характеристика душности погоды. При расчете учитывается влияние влажности воздуха и скорости ветра на теплоощущения человека.
Tes - Эффективная температура на солнце - температура, которую ощущает человек, с поправкой на солнечный нагрев. Характеристика знойности погоды. Зависит от высоты солнца над горизонтом, облачности и скорости ветра. Ночью, в пасмурную погоду, а также при ветре 12 м/с и более поправка равна нулю.
P - Атмосферное давление - приведенное к уровню моря атмосферное давление.
Po - Атмосферное давление - измеренное на уровне метеостанции атмосферное давление.
Tmin - Минимальная температура - минимум температуры воздуха на высоте 2 м над землей.
Tmax - Максимальная температура - максимум температуры воздуха на высоте 2 м над землей.
R - Количество осадков - Количество выпавших осадков за период времени, мм. При наведении курсора мыши на число - период времени, за который выпало указанное количество осадков.
R24 - Количество осадков - Количество выпавших осадков за 24 часа, мм.
S - Снежный покров - Высота снежного покрова, см. При наведении курсора мыши на число - состояние снежного покрова и степень покрытия местности в баллах.